W5TTY Weather Reports


time (UTC)temp
C
wind
direction
speed
KPH
gust
KPH
rain 1hr
cm
rain 24hr
cm
rain mn
cm
humidity
%
barometer
mb
20260505032326 22 171 8.0 27.4 0.00 0.00 0.00 71 1009.2
20260505031829 22 169 8.0 14.5 0.00 0.00 0.00 71 1009.0
20260505031333 22 180 8.0 14.5 0.00 0.00 0.00 71 1009.1
20260505030837 22 180 6.4 16.1 0.00 0.00 0.00 71 1008.9
20260505030321 22 150 6.4 16.1 0.00 0.00 0.00 71 1008.9
20260505025826 22 182 8.0 16.1 0.00 0.00 0.00 71 1008.9
20260505025333 23 148 9.7 16.1 0.00 0.00 0.00 70 1009.0
20260505024840 23 188 9.7 17.7 0.00 0.00 0.00 70 1009.0
20260505024325 23 112 9.7 17.7 0.00 0.00 0.00 70 1009.0
20260505023850 23 165 8.0 17.7 0.00 0.00 0.00 70 1008.9
20260505023343 23 169 9.7 17.7 0.00 0.00 0.00 70 1008.8
20260505022847 23 146 8.0 16.1 0.00 0.00 0.00 70 1008.9
20260505022329 23 151 9.7 16.1 0.00 0.00 0.00 70 1008.9
20260505021834 23 167 9.7 16.1 0.00 0.00 0.00 69 1008.8
20260505021321 23 164 6.4 17.7 0.00 0.00 0.00 69 1008.8
20260505020828 23 198 9.7 19.3 0.00 0.00 0.00 69 1008.8
20260505020334 23 169 8.0 20.9 0.00 0.00 0.00 69 1008.8
20260505015819 23 152 11.3 20.9 0.00 0.00 0.00 69 1008.7
20260505015323 23 219 9.7 20.9 0.00 0.00 0.00 69 1008.6
20260505014827 23 169 9.7 22.5 0.00 0.00 0.00 68 1008.5
20260505014352 23 164 8.0 17.7 0.00 0.00 0.00 68 1008.5
20260505013837 23 162 11.3 16.1 0.00 0.00 0.00 68 1008.6
20260505013324 24 170 8.0 16.1 0.00 0.00 0.00 68 1008.5
20260505012829 24 184 8.0 19.3 0.00 0.00 0.00 68 1008.6
20260505012337 24 140 11.3 19.3 0.00 0.00 0.00 68 1008.5
20260505011824 24 159 6.4 16.1 0.00 0.00 0.00 68 1008.6
20260505011329 24 200 9.7 27.4 0.00 0.00 0.00 68 1008.5
20260505010903 24 164 9.7 27.4 0.00 0.00 0.00 68 1008.4
20260505010327 24 173 9.7 17.7 0.00 0.00 0.00 68 1008.5
20260505005836 24 166 9.7 16.1 0.00 0.00 0.00 67 1008.4
20260505005322 25 131 11.3 22.5 0.00 0.00 0.00 67 1008.4
20260505004828 25 146 8.0 20.9 0.00 0.00 0.00 67 1008.3
20260505004333 25 186 9.7 20.9 0.00 0.00 0.00 67 1008.4
20260505003823 25 144 8.0 17.7 0.00 0.00 0.00 67 1008.4
20260505003329 25 126 9.7 19.3 0.00 0.00 0.00 67 1008.4
20260505002837 25 117 6.4 19.3 0.00 0.00 0.00 67 1008.4
20260505002337 25 202 9.7 16.1 0.00 0.00 0.00 67 1008.6
20260505001823 25 138 8.0 16.1 0.00 0.00 0.00 67 1008.7
20260505001325 25 190 8.0 22.5 0.00 0.00 0.00 67 1008.7
20260505000831 25 117 14.5 22.5 0.00 0.00 0.00 67 1008.7
20260505000340 25 187 9.7 24.1 0.00 0.00 0.00 67 1008.7
20260504235852 26 192 11.3 24.1 0.00 0.00 0.00 67 1008.8
20260504235332 26 153 11.3 24.1 0.00 0.00 0.00 67 1008.9
20260504234820 26 204 8.0 24.1 0.00 0.00 0.00 67 1008.9
20260504234329 26 133 12.9 24.1 0.00 0.00 0.00 67 1008.8
20260504233838 26 192 9.7 20.9 0.00 0.00 0.00 67 1008.9
20260504233327 26 182 11.3 24.1 0.00 0.00 0.00 67 1009.0
20260504232832 26 198 12.9 25.7 0.00 0.00 0.00 67 1008.9
20260504232318 26 199 9.7 25.7 0.00 0.00 0.00 67 1008.9
20260504231827 26 178 9.7 22.5 0.00 0.00 0.00 67 1009.0
20260504231351 26 149 9.7 19.3 0.00 0.00 0.00 67 1008.9
20260504230817 26 157 9.7 19.3 0.00 0.00 0.00 67 1008.8
20260504230322 26 151 9.7 19.3 0.00 0.00 0.00 67 1008.9
20260504225832 26 166 8.0 19.3 0.00 0.00 0.00 67 1009.0
20260504225335 26 174 9.7 19.3 0.00 0.00 0.00 67 1009.2
20260504224825 26 179 11.3 25.7 0.00 0.00 0.00 67 1009.3
20260504224326 26 161 9.7 25.7 0.00 0.00 0.00 67 1009.2
20260504223832 26 144 9.7 20.9 0.00 0.00 0.00 67 1009.3
20260504223317 26 159 11.3 20.9 0.00 0.00 0.00 67 1009.5
20260504222825 26 146 9.7 24.1 0.00 0.00 0.00 67 1009.4
20260504222326 26 169 8.0 24.1 0.00 0.00 0.00 67 1009.5
20260504221833 26 181 8.0 24.1 0.00 0.00 0.00 67 1009.5
20260504221318 26 180 11.3 27.4 0.00 0.00 0.00 67 1009.5
20260504220850 26 120 11.3 27.4 0.00 0.00 0.00 67 1009.6
20260504220333 26 183 14.5 29.0 0.00 0.00 0.00 67 1009.7
20260504215839 26 146 14.5 29.0 0.00 0.00 0.00 67 1009.7
20260504215321 26 236 11.3 20.9 0.00 0.00 0.00 67 1009.7
20260504214826 26 161 12.9 24.1 0.00 0.00 0.00 67 1009.7
20260504214328 26 142 9.7 24.1 0.00 0.00 0.00 67 1009.9
20260504213829 26 190 12.9 24.1 0.00 0.00 0.00 67 1010.1
20260504213336 26 153 4.8 17.7 0.00 0.00 0.00 67 1010.1
20260504212848 26 150 9.7 22.5 0.00 0.00 0.00 67 1010.2
20260504212329 26 175 9.7 19.3 0.00 0.00 0.00 67 1010.2
20260504211833 26 185 11.3 22.5 0.00 0.00 0.00 67 1010.3
20260504211335 26 207 11.3 30.6 0.00 0.00 0.00 67 1010.4
20260504210819 26 181 11.3 30.6 0.00 0.00 0.00 67 1010.5
20260504210330 26 205 11.3 22.5 0.00 0.00 0.00 67 1010.7
20260504205833 26 155 11.3 24.1 0.00 0.00 0.00 68 1010.8
20260504205337 26 216 12.9 29.0 0.00 0.00 0.00 68 1010.8
20260504204842 26 208 11.3 27.4 0.00 0.00 0.00 67 1010.8
20260504204351 26 184 9.7 27.4 0.00 0.00 0.00 67 1011.1
20260504203839 26 211 12.9 32.2 0.00 0.00 0.00 68 1011.2
20260504203322 26 197 11.3 32.2 0.00 0.00 0.00 68 1011.2
20260504202855 26 217 14.5 29.0 0.00 0.00 0.00 68 1011.3
20260504202337 26 196 8.0 29.0 0.00 0.00 0.00 68 1011.2
20260504201844 26 150 14.5 25.7 0.00 0.00 0.00 68 1011.3
20260504201325 26 175 8.0 25.7 0.00 0.00 0.00 68 1011.6
20260504200831 26 193 8.0 19.3 0.00 0.00 0.00 68 1011.7
20260504200317 26 134 9.7 25.7 0.00 0.00 0.00 68 1011.7
20260504195824 26 202 12.9 25.7 0.00 0.00 0.00 69 1011.6
20260504195327 26 163 12.9 25.7 0.00 0.00 0.00 69 1011.9
20260504194833 26 209 9.7 20.9 0.00 0.00 0.00 69 1012.0
20260504194318 26 187 11.3 20.9 0.00 0.00 0.00 69 1012.1
20260504193825 26 195 8.0 25.7 0.00 0.00 0.00 69 1012.2
20260504193329 26 149 9.7 22.5 0.00 0.00 0.00 69 1012.2
20260504192834 26 187 9.7 25.7 0.00 0.00 0.00 69 1012.3
20260504192319 26 199 11.3 24.1 0.00 0.00 0.00 70 1012.4
20260504191850 26 153 11.3 25.7 0.00 0.00 0.00 70 1012.5
20260504191337 26 134 12.9 25.7 0.00 0.00 0.00 70 1012.4
20260504190844 26 227 11.3 25.7 0.00 0.00 0.00 70 1012.3
20260504190326 26 161 11.3 27.4 0.00 0.00 0.00 70 1012.5
20260504185840 26 193 11.3 27.4 0.00 0.00 0.00 70 1012.7
20260504185343 26 138 12.9 24.1 0.00 0.00 0.00 71 1012.6
20260504184846 26 222 12.9 22.5 0.00 0.00 0.00 71 1012.7
20260504184327 26 173 12.9 32.2 0.00 0.00 0.00 71 1012.8
20260504183902 26 192 12.9 27.4 0.00 0.00 0.00 71 1013.0
20260504183346 25 206 8.0 27.4 0.00 0.00 0.00 72 1013.2
20260504182849 25 176 4.8 29.0 0.00 0.00 0.00 72 1013.2
20260504182355 25 149 12.9 29.0 0.00 0.00 0.00 72 1013.2
20260504181842 25 198 11.3 27.4 0.00 0.00 0.00 72 1013.3
20260504181325 25 171 14.5 30.6 0.00 0.00 0.00 72 1013.1
20260504180830 25 200 14.5 30.6 0.00 0.00 0.00 73 1013.3
20260504180336 25 181 11.3 32.2 0.00 0.00 0.00 73 1013.3
20260504175824 25 237 16.1 32.2 0.00 0.00 0.00 73 1013.4
20260504175325 25 153 11.3 32.2 0.00 0.00 0.00 73 1013.5
20260504174828 25 186 16.1 24.1 0.00 0.00 0.00 73 1013.7
20260504174333 24 213 9.7 20.9 0.00 0.00 0.00 74 1013.7
20260504173839 24 198 12.9 35.4 0.00 0.00 0.00 74 1013.7
20260504173329 24 226 9.7 30.6 0.00 0.00 0.00 74 1013.8
20260504172832 24 140 12.9 25.7 0.00 0.00 0.00 74 1013.8
20260504172335 24 157 8.0 25.7 0.00 0.00 0.00 74 1013.9
20260504171849 24 190 9.7 30.6 0.00 0.00 0.00 74 1014.0
20260504171329 24 208 16.1 30.6 0.00 0.00 0.00 75 1014.2
20260504170849 24 190 11.3 25.7 0.00 0.00 0.00 75 1014.2
20260504170335 23 148 9.7 35.4 0.00 0.00 0.00 75 1014.2
20260504160325 22 178 14.5 29.0 0.00 0.00 0.00 76 1014.8
20260504150821 21 172 11.3 22.5 0.00 0.00 0.00 77 1015.0
20260504150320 21 196 9.7 22.5 0.00 0.00 0.00 77 1015.1
20260504141328 19 213 9.7 20.9 0.00 0.00 0.00 76 1015.2
20260504140831 18 144 8.0 19.3 0.00 0.00 0.00 76 1015.3
20260504140336 18 242 9.7 19.3 0.00 0.00 0.00 76 1015.2
20260504130318 15 173 8.0 12.9 0.00 0.00 0.00 74 1015.2
20260504110337 13 143 1.6 3.2 0.00 0.00 0.00 70 1014.8